[[{"header":{"parameterUnit":"m.s-1","parameterCategory":1,"la1":30.2992,"la2":30.254,"lo1":-89.0895,"lo2":-89.0443,"dy":0.0025,"dx":0.0025,"nx":19,"ny":19,"refTime":"2026-05-15T21:00:00:Z","depth":0,"parameterNumber":2,"parameterNumberName":"U-component_of_WINDS"},"data":[0,0,0,-1.7701,-1.77,-1.7644,-1.7644,-1.7584,-1.7583,0,0,0,0,0,0,0,0,0,0,0,-1.7727,-1.7727,-1.7701,-1.77,-1.7644,-1.7644,-1.7584,-1.7583,0,0,0,0,0,0,0,0,0,0,0,-1.7727,-1.7727,-1.7727,-1.77,-1.7644,-1.7644,-1.7584,-1.7621,0,0,0,0,0,0,0,0,0,0,-1.7673,-1.7707,-1.7727,-1.7727,-1.7699,-1.7644,-1.7644,-1.7623,-1.7619,-1.7615,0,-1.7616,0,-1.7599,-1.758,-1.758,0,0,0,-1.7692,-1.7711,-1.7687,-1.7727,-1.7699,-1.7644,-1.7667,-1.7621,-1.7616,-1.761,-1.7615,-1.7612,-1.7598,-1.758,-1.758,-1.7589,-1.759,0,0,-1.7695,-1.7721,-1.7691,-1.7685,-1.7697,-1.7669,-1.7665,-1.7618,-1.7624,-1.7615,-1.7611,-1.7597,-1.758,-1.7579,-1.7589,-1.759,0,0,0,-1.7709,-1.7724,-1.7701,-1.7688,-1.7677,-1.7667,-1.7663,-1.7626,-1.7617,-1.761,-1.7597,-1.758,-1.7579,-1.7589,-1.7589,-1.7637,0,0,0,-1.7711,-1.7732,-1.7703,-1.7718,-1.7679,-1.7651,-1.7673,-1.762,-1.7614,-1.7597,-1.758,-1.7579,-1.7588,-1.7589,-1.7634,-1.7654,0,0,0,-1.7727,-1.7734,-1.7729,-1.772,-1.7697,-1.7652,-1.7639,-1.7618,-1.7606,-1.758,-1.7578,-1.7588,-1.7589,-1.7632,-1.765,-1.7665,0,0,0,-1.7752,-1.777,-1.7731,-1.7746,-1.7698,-1.7682,-1.7639,-1.7625,-1.7609,-1.7579,-1.7588,-1.7589,-1.7631,-1.7648,-1.7663,-1.7681,-1.7692,0,0,-1.7789,-1.7776,-1.7782,-1.7745,-1.7744,-1.7689,-1.7693,-1.7651,-1.7623,-1.7602,-1.7602,-1.7635,-1.765,-1.7664,-1.7742,-1.7751,0,0,0,-1.7803,-1.7809,-1.7802,-1.779,-1.7761,-1.7737,-1.7693,-1.7677,-1.7658,-1.7619,-1.7643,-1.7651,-1.7658,-1.7666,-1.7673,-1.7678,-1.7594,-1.7594,-1.7594,-1.7893,-1.7859,-1.7868,-1.7828,-1.7816,-1.7772,-1.7758,-1.773,-1.7696,-1.7703,-1.7696,-1.7748,-1.7758,-1.7763,-1.7768,-1.7703,-1.7704,-1.7704,-1.7704,-1.7945,-1.7947,-1.7906,-1.79,-1.7864,-1.7857,-1.7815,-1.7793,-1.778,-1.775,-1.7754,-1.7724,-1.7774,-1.7776,-1.7707,-1.7706,-1.7706,-1.7706,-1.7706,-1.8,-1.7995,-1.7978,-1.7958,-1.7945,-1.7902,-1.7894,-1.786,-1.7827,-1.7832,-1.7821,-1.782,-1.7815,-1.783,-1.783,-1.783,-1.783,-1.783,-1.783,-1.8063,-1.8043,-1.8041,-1.8014,-1.8002,-1.7981,-1.7938,-1.7924,-1.79,-1.7876,-1.7876,-1.7842,-1.7786,-1.7772,-1.7833,-1.7833,-1.7832,-1.7832,-1.7832,-1.8128,-1.8109,-1.8106,-1.8094,-1.8059,-1.8049,-1.8007,-1.7983,-1.7966,-1.7963,-1.7929,-1.7893,-1.7875,-1.7869,-1.7858,-1.7937,-1.7937,-1.7937,-1.7937,-1.8174,-1.8163,-1.8153,-1.8137,-1.8117,-1.808,-1.8076,-1.8043,-1.8004,-1.7992,-1.7976,-1.7958,-1.7953,-1.7938,-1.793,-1.7919,-1.8012,-1.8012,-1.8012,-1.8212,-1.8198,-1.8202,-1.8168,-1.8138,-1.8113,-1.8109,-1.809,-1.8042,-1.8014,-1.7981,-1.7978,-1.7949,-1.7941,-1.7911,-1.79,-1.7879,0,0]},{"header":{"parameterUnit":"m.s-1","parameterCategory":1,"la1":30.2992,"la2":30.254,"lo1":-89.0895,"lo2":-89.0443,"dy":0.0025,"dx":0.0025,"nx":19,"ny":19,"refTime":"2026-05-15T21:00:00:Z","depth":0,"parameterNumber":3,"parameterNumberName":"V-component_of_WINDS"},"data":[0,0,0,3.5342,3.5342,3.5327,3.5327,3.5316,3.5316,0,0,0,0,0,0,0,0,0,0,0,3.5352,3.5352,3.5342,3.5342,3.5327,3.5327,3.5316,3.5316,0,0,0,0,0,0,0,0,0,0,0,3.5352,3.5352,3.5352,3.5342,3.5327,3.5327,3.5316,3.5324,0,0,0,0,0,0,0,0,0,0,3.5337,3.5352,3.5352,3.5352,3.5342,3.5327,3.5327,3.5324,3.5324,3.5326,0,3.5331,0,3.5323,3.5316,3.5316,0,0,0,3.5338,3.5352,3.5344,3.5352,3.5342,3.5327,3.5332,3.5324,3.5323,3.5325,3.533,3.533,3.5323,3.5316,3.5316,3.5347,3.5347,0,0,3.5338,3.5352,3.5344,3.5343,3.5347,3.5333,3.5332,3.5323,3.5329,3.533,3.5329,3.5323,3.5316,3.5316,3.5347,3.5347,0,0,0,3.5344,3.5353,3.5344,3.5344,3.5341,3.5333,3.5332,3.533,3.5326,3.5329,3.5323,3.5316,3.5315,3.5346,3.5347,3.5377,0,0,0,3.5344,3.5356,3.5345,3.5353,3.5341,3.5335,3.5338,3.5326,3.5325,3.5323,3.5316,3.5315,3.5346,3.5346,3.5375,3.5388,0,0,0,3.5351,3.5357,3.5356,3.5353,3.5348,3.5335,3.533,3.5326,3.5321,3.5316,3.5315,3.5345,3.5346,3.5374,3.5386,3.54,0,0,0,3.5362,3.5383,3.5357,3.5378,3.5348,3.5354,3.533,3.5334,3.5333,3.5315,3.5346,3.5347,3.5373,3.5384,3.5399,3.5414,3.5422,0,0,3.5396,3.5388,3.5399,3.5375,3.5389,3.5355,3.5374,3.536,3.5347,3.5347,3.5348,3.5376,3.5385,3.54,3.5463,3.547,0,0,0,3.5414,3.5422,3.5423,3.5423,3.5413,3.5406,3.5387,3.5382,3.5382,3.535,3.5385,3.539,3.5398,3.5404,3.541,3.5415,3.5351,3.5351,3.535,3.548,3.5463,3.548,3.5461,3.5461,3.5443,3.5441,3.5431,3.5413,3.5422,3.5421,3.5462,3.5471,3.5475,3.5481,3.5429,3.5429,3.5429,3.5429,3.5526,3.5535,3.5512,3.552,3.5502,3.5508,3.5492,3.5479,3.5482,3.5461,3.5467,3.5445,3.5482,3.5486,3.5432,3.5431,3.5431,3.5431,3.5431,3.5567,3.5567,3.5562,3.556,3.5561,3.5542,3.5546,3.5529,3.5514,3.552,3.5517,3.5516,3.5513,3.552,3.552,3.552,3.552,3.552,3.552,3.561,3.5603,3.5608,3.5601,3.5599,3.5594,3.5577,3.5574,3.5567,3.5554,3.5554,3.5535,3.549,3.5478,3.5523,3.5522,3.5522,3.5522,3.5522,3.5662,3.5648,3.5657,3.5655,3.5645,3.5646,3.5626,3.5622,3.5618,3.562,3.5601,3.557,3.556,3.5556,3.5546,3.5605,3.5605,3.5605,3.5605,3.5695,3.5689,3.5694,3.5692,3.5689,3.5671,3.5682,3.5669,3.5653,3.5649,3.5639,3.5625,3.5621,3.5613,3.5607,3.5597,3.5669,3.5669,3.5669,3.5725,3.5718,3.573,3.5715,3.5706,3.5699,3.5708,3.5707,3.5686,3.5671,3.5646,3.5643,3.562,3.5614,3.5597,3.5588,3.557,0,0]}]]